• In Netherlands
  • List of Countries
  • For 7 days
  • Water Temperature
  • Satellite Maps
  • Weather Map
  • Weather Widgets
  • user-avatar
    Login

    Hourly Weather Uida

    Today, 24 November, Friday

    Time Temperature Precipitation Wind Pressure Humidity
    00:00 +28°C° 0 mm 3 mps 757 mmHg 86%
    01:00 +27°C° 0 mm 3 mps 757 mmHg 86%
    02:00 +27°C° 0 mm 3 mps 756 mmHg 86%
    03:00 +27°C° 0 mm 2 mps 756 mmHg 86%
    04:00 +27°C° 0 mm 2 mps 756 mmHg 86%
    05:00 +27°C° 0 mm 2 mps 756 mmHg 87%
    06:00 +27°C° 0 mm 2 mps 756 mmHg 87%
    07:00 +28°C° 0 mm 2 mps 757 mmHg 79%
    08:00 +30°C° 0 mm 3 mps 757 mmHg 72%
    09:00 +33°C° 0 mm 3 mps 758 mmHg 65%
    10:00 +34°C° 0 mm 3 mps 757 mmHg 59%
    11:00 +36°C° 0 mm 3 mps 757 mmHg 53%
    12:00 +37°C° 0 mm 3 mps 757 mmHg 48%
    13:00 +37°C° 0.2 mm 3 mps 756 mmHg 50%
    14:00 +36°C° 0.2 mm 3 mps 755 mmHg 52%
    15:00 +35°C° 0.2 mm 4 mps 754 mmHg 55%
    16:00 +34°C° 0.1 mm 4 mps 755 mmHg 62%
    17:00 +32°C° 0.1 mm 4 mps 755 mmHg 68%
    18:00 +30°C° 0.1 mm 4 mps 755 mmHg 75%
    19:00 +29°C° 0 mm 4 mps 756 mmHg 77%
    20:00 +29°C° 0 mm 4 mps 756 mmHg 79%
    21:00 +29°C° 0 mm 4 mps 757 mmHg 81%
    22:00 +29°C° 0 mm 4 mps 757 mmHg 83%
    23:00 +29°C° 0 mm 4 mps 757 mmHg 84%

    Tomorrow, 25 November, Saturday

    Time Temperature Precipitation Wind Pressure Humidity
    00:00 +28°C° 0 mm 5 mps 757 mmHg 86%
    01:00 +28°C° 0.1 mm 4 mps 757 mmHg 86%
    02:00 +28°C° 0.1 mm 4 mps 756 mmHg 87%
    03:00 +28°C° 0.1 mm 3 mps 756 mmHg 88%
    04:00 +28°C° 0 mm 3 mps 756 mmHg 89%
    05:00 +27°C° 0 mm 3 mps 756 mmHg 90%
    06:00 +27°C° 0 mm 3 mps 757 mmHg 91%
    07:00 +29°C° 0 mm 3 mps 757 mmHg 83%
    08:00 +30°C° 0 mm 3 mps 758 mmHg 75%
    09:00 +33°C° 0 mm 3 mps 758 mmHg 68%
    10:00 +34°C° 0 mm 3 mps 758 mmHg 61%
    11:00 +36°C° 0 mm 3 mps 757 mmHg 55%
    12:00 +37°C° 0 mm 3 mps 757 mmHg 49%
    13:00 +37°C° 0.1 mm 3 mps 756 mmHg 51%
    14:00 +36°C° 0.1 mm 3 mps 755 mmHg 52%
    15:00 +36°C° 0.1 mm 4 mps 755 mmHg 54%
    16:00 +34°C° 0.1 mm 4 mps 755 mmHg 62%
    17:00 +32°C° 0.1 mm 4 mps 755 mmHg 70%
    18:00 +30°C° 0.1 mm 4 mps 756 mmHg 78%
    19:00 +29°C° 0 mm 4 mps 756 mmHg 80%
    20:00 +29°C° 0 mm 4 mps 757 mmHg 82%
    21:00 +29°C° 0 mm 4 mps 758 mmHg 84%
    22:00 +29°C° 0 mm 4 mps 757 mmHg 85%
    23:00 +29°C° 0 mm 4 mps 757 mmHg 86%

    Day after tomorrow, 26 November, Sunday

    Time Temperature Precipitation Wind Pressure Humidity
    00:00 +28°C° 0 mm 4 mps 757 mmHg 87%
    01:00 +28°C° 0 mm 4 mps 757 mmHg 88%
    02:00 +28°C° 0 mm 3 mps 756 mmHg 89%
    03:00 +28°C° 0 mm 3 mps 756 mmHg 89%
    04:00 +27°C° 0 mm 3 mps 756 mmHg 90%
    05:00 +27°C° 0 mm 3 mps 756 mmHg 91%
    06:00 +27°C° 0 mm 3 mps 757 mmHg 92%
    07:00 +29°C° 0 mm 2 mps 757 mmHg 83%
    08:00 +31°C° 0 mm 2 mps 758 mmHg 74%
    09:00 +34°C° 0 mm 2 mps 758 mmHg 66%
    10:00 +35°C° 0.1 mm 2 mps 758 mmHg 62%
    11:00 +35°C° 0.1 mm 2 mps 757 mmHg 58%
    12:00 +36°C° 0.1 mm 2 mps 757 mmHg 54%
    13:00 +36°C° 0.1 mm 2 mps 756 mmHg 53%
    14:00 +36°C° 0.1 mm 3 mps 756 mmHg 53%
    15:00 +36°C° 0.1 mm 3 mps 755 mmHg 53%
    16:00 +34°C° 0.1 mm 4 mps 755 mmHg 60%
    17:00 +33°C° 0.1 mm 4 mps 755 mmHg 68%
    18:00 +30°C° 0.1 mm 4 mps 756 mmHg 76%
    19:00 +30°C° 0 mm 4 mps 756 mmHg 78%
    20:00 +29°C° 0 mm 5 mps 757 mmHg 80%
    21:00 +29°C° 0 mm 5 mps 758 mmHg 82%
    22:00 +29°C° 0 mm 4 mps 757 mmHg 84%
    23:00 +28°C° 0 mm 4 mps 757 mmHg 85%

    27 November, Monday

    Time Temperature Precipitation Wind Pressure Humidity
    00:00 +28°C° 0 mm 4 mps 757 mmHg 87%
    01:00 +28°C° 0 mm 4 mps 757 mmHg 88%
    02:00 +28°C° 0 mm 4 mps 756 mmHg 89%
    03:00 +28°C° 0 mm 4 mps 756 mmHg 89%
    04:00 +27°C° 0 mm 3 mps 756 mmHg 90%
    05:00 +27°C° 0 mm 3 mps 757 mmHg 90%
    06:00 +27°C° 0 mm 3 mps 757 mmHg 90%
    07:00 +29°C° 0.2 mm 3 mps 758 mmHg 82%
    08:00 +30°C° 0.2 mm 2 mps 758 mmHg 74%
    09:00 +32°C° 0.2 mm 2 mps 759 mmHg 66%
    10:00 +34°C° 0.3 mm 2 mps 758 mmHg 60%
    11:00 +35°C° 0.3 mm 2 mps 758 mmHg 54%
    12:00 +37°C° 0.3 mm 2 mps 757 mmHg 48%
    13:00 +36°C° 0 mm 2 mps 756 mmHg 49%
    14:00 +36°C° 0 mm 3 mps 756 mmHg 50%
    15:00 +35°C° 0 mm 3 mps 755 mmHg 51%
    16:00 +34°C° 0.1 mm 4 mps 755 mmHg 58%
    17:00 +32°C° 0.1 mm 4 mps 756 mmHg 65%
    18:00 +30°C° 0.1 mm 4 mps 756 mmHg 72%
    19:00 +29°C° 0 mm 4 mps 757 mmHg 75%
    20:00 +29°C° 0 mm 4 mps 757 mmHg 77%
    21:00 +29°C° 0 mm 4 mps 758 mmHg 80%
    22:00 +29°C° 0 mm 4 mps 757 mmHg 81%
    23:00 +28°C° 0 mm 4 mps 757 mmHg 83%

    28 November, Tuesday

    Time Temperature Precipitation Wind Pressure Humidity
    00:00 +28°C° 0 mm 4 mps 757 mmHg 84%
    01:00 +28°C° 0 mm 4 mps 757 mmHg 85%
    02:00 +28°C° 0 mm 3 mps 756 mmHg 86%
    03:00 +27°C° 0 mm 3 mps 756 mmHg 87%
    04:00 +27°C° 0.1 mm 3 mps 756 mmHg 88%
    05:00 +27°C° 0.1 mm 3 mps 757 mmHg 89%
    06:00 +27°C° 0.1 mm 3 mps 757 mmHg 90%
    07:00 +28°C° 0 mm 3 mps 757 mmHg 81%
    08:00 +30°C° 0 mm 3 mps 758 mmHg 73%
    09:00 +33°C° 0 mm 3 mps 758 mmHg 65%
    10:00 +34°C° 0.1 mm 3 mps 758 mmHg 61%
    11:00 +35°C° 0.1 mm 3 mps 757 mmHg 57%
    12:00 +36°C° 0.1 mm 3 mps 757 mmHg 53%
    13:00 +35°C° 0.2 mm 3 mps 756 mmHg 53%
    14:00 +35°C° 0.2 mm 3 mps 755 mmHg 53%
    15:00 +35°C° 0.2 mm 4 mps 755 mmHg 53%
    16:00 +34°C° 0.1 mm 4 mps 755 mmHg 60%
    17:00 +32°C° 0.1 mm 4 mps 756 mmHg 66%
    18:00 +30°C° 0.1 mm 4 mps 756 mmHg 73%
    19:00 +29°C° 0 mm 4 mps 756 mmHg 75%
    20:00 +29°C° 0 mm 3 mps 757 mmHg 77%
    21:00 +29°C° 0 mm 3 mps 757 mmHg 79%
    22:00 +28°C° 0.2 mm 3 mps 757 mmHg 81%
    23:00 +28°C° 0.2 mm 3 mps 757 mmHg 82%

    29 November, Wednesday

    Time Temperature Precipitation Wind Pressure Humidity
    00:00 +28°C° 0.2 mm 3 mps 757 mmHg 84%
    01:00 +27°C° 0.8 mm 3 mps 756 mmHg 85%
    02:00 +27°C° 0.8 mm 3 mps 756 mmHg 87%
    03:00 +27°C° 0.8 mm 3 mps 756 mmHg 88%
    04:00 +27°C° 0.2 mm 3 mps 756 mmHg 88%
    05:00 +27°C° 0.2 mm 3 mps 757 mmHg 88%
    06:00 +26°C° 0.2 mm 3 mps 757 mmHg 88%
    07:00 +28°C° 0.1 mm 3 mps 757 mmHg 81%
    08:00 +30°C° 0.1 mm 3 mps 758 mmHg 73%
    09:00 +33°C° 0.1 mm 3 mps 758 mmHg 65%
    10:00 +34°C° 0 mm 3 mps 757 mmHg 58%
    11:00 +36°C° 0 mm 3 mps 757 mmHg 52%
    12:00 +37°C° 0 mm 3 mps 756 mmHg 45%
    13:00 +37°C° 0.1 mm 3 mps 756 mmHg 48%
    14:00 +36°C° 0.1 mm 4 mps 755 mmHg 50%
    15:00 +35°C° 0.1 mm 4 mps 754 mmHg 53%
    16:00 +34°C° 0 mm 4 mps 755 mmHg 60%
    17:00 +32°C° 0 mm 4 mps 755 mmHg 66%
    18:00 +30°C° 0 mm 4 mps 756 mmHg 73%
    19:00 +29°C° 0 mm 4 mps 756 mmHg 75%
    20:00 +29°C° 0 mm 4 mps 756 mmHg 77%
    21:00 +29°C° 0 mm 4 mps 757 mmHg 79%
    22:00 +29°C° 0 mm 4 mps 757 mmHg 80%
    23:00 +28°C° 0 mm 4 mps 757 mmHg 81%
    Show more